Tracking 31027 objects as of 19-Jul-2025
HD Live streaming from Space Station
objects crossing your sky now

COSMOS 1275 DEB

Track COSMOS 1275 DEB now!
10-day predictions


NORAD ID: 12663
Int'l Code: 1981-053T
Perigee: 907.1 km
Apogee: 982.8 km
Inclination: 83.0 °
Period: 103.8 minutes
Semi major axis: 7315 km
RCS: 0.0867 m2 (small)
Launch date: June 4, 1981
Source: Commonwealth of Independent States (former USSR) (CIS)
Launch site: PLESETSK MISSILE AND SPACE COMPLEX (PKMTR)

Note: This is SATELLITE DEBRIS
Your satellite tracking list
IRIDIUM 33 DEB
Track 1 satellite(s)




NASA's NSSDC Master Catalog

Two Line Element Set (TLE):
1 12663U 81053T   25199.03965213  .00000507  00000-0  41274-3 0  9993
2 12663  82.9508  53.1478 0051685  37.3953  75.6291 13.87381817212861
Source of the keplerian elements: AFSPC